[[{"header":{"parameterUnit":"m.s-1","parameterCategory":1,"la1":30.2991,"la2":30.254,"lo1":-89.0895,"lo2":-89.0444,"dy":0.0017,"dx":0.0017,"nx":28,"ny":28,"refTime":"2024-09-04T09:00:00:Z","depth":0,"parameterNumber":2,"parameterNumberName":"U-component_of_WINDS"},"data":[0,0,0,0,0,0,0,0,0,0,0,0,0,0,0,0,0,0,0,0,0,0,0,0,0,0,0,0,0,0,0,0,0,0,0,0,0,0,0,0,0,0,0,0,0,0,0,0,0,0,0,0,0,0,0,0,0,0,-6.6731,-6.6731,0,-6.6716,-6.6715,-6.6715,-6.6537,-6.6533,-6.6528,-6.6524,-6.6509,-6.6513,-6.6517,0,0,0,0,0,0,0,0,0,0,0,0,0,-6.6608,-6.6611,-6.6731,-6.6731,-6.6731,-6.6716,-6.6715,-6.6715,-6.6538,-6.6532,-6.6527,-6.6522,-6.6508,-6.6512,-6.6517,0,0,0,0,0,0,0,0,0,0,0,0,0,-6.6634,-6.6612,-6.6731,-6.6641,-6.6632,-6.6716,-6.6715,-6.6715,-6.6539,-6.6532,-6.6526,-6.6519,-6.6506,-6.6512,-6.6518,-6.6687,0,0,-6.6535,-6.6537,0,0,0,0,0,0,0,0,-6.6633,-6.6639,-6.6654,-6.6647,-6.6638,-6.6621,-6.6666,-6.6706,-6.6541,-6.6575,-6.6524,-6.6516,-6.6552,-6.6554,-6.6565,-6.6687,-6.6686,-6.6535,-6.6539,-6.6541,-6.6543,0,0,0,0,0,0,0,-6.6631,-6.6638,-6.6725,-6.6655,-6.6645,-6.6601,-6.6597,-6.6673,-6.6601,-6.6571,-6.6558,-6.6559,-6.6546,-6.656,-6.6564,-6.6686,-6.6535,-6.654,-6.6544,-6.6546,-6.6943,-6.695,0,0,0,0,0,0,-6.6642,-6.6638,-6.6725,-6.6725,-6.6619,-6.6608,-6.6604,-6.6634,-6.66,-6.6588,-6.6564,-6.655,-6.6554,-6.6557,-6.6563,-6.6757,-6.6541,-6.6547,-6.655,-6.6936,-6.6945,-6.6952,0,0,0,0,0,0,-6.664,-6.6651,-6.6726,-6.6678,-6.6684,-6.6618,-6.6652,-6.6637,-6.665,-6.6595,-6.6581,-6.6592,-6.6549,-6.6555,-6.6657,-6.6754,-6.6549,-6.6554,-6.6928,-6.6939,-6.6949,-6.7149,0,0,0,0,0,0,-6.6637,-6.6652,-6.6715,-6.6681,-6.6687,-6.6821,-6.6658,-6.6641,-6.6661,-6.6642,-6.6617,-6.6606,-6.6544,-6.6649,-6.6663,-6.6758,-6.6559,-6.6919,-6.6933,-6.6945,-6.7133,-6.7165,-6.7192,0,0,0,0,0,-6.6633,-6.6773,-6.672,-6.6731,-6.6766,-6.6827,-6.6831,-6.6756,-6.6669,-6.6732,-6.6697,-6.6607,-6.6742,-6.6662,-6.6675,-6.6774,-6.6912,-6.6929,-6.6944,-6.712,-6.7159,-6.7192,0,0,0,0,0,0,-6.6822,-6.6767,-6.6707,-6.684,-6.684,-6.6797,-6.6874,-6.68,-6.6825,-6.6806,-6.6713,-6.6708,-6.6825,-6.681,-6.6721,-6.6935,-6.6811,-6.6831,-6.694,-6.6977,-6.7006,-6.7006,-6.6563,0,0,0,0,0,-6.6879,-6.6934,-6.6883,-6.7005,-6.7008,-6.6942,-6.6966,-6.6908,-6.6904,-6.6903,-6.6875,-6.6875,-6.6916,-6.6946,-6.6982,-6.7131,-6.7122,-6.7205,-6.7235,-6.7259,-6.7277,-6.7352,-6.7388,-6.7005,-6.7005,-6.7005,0,0,-6.6997,-6.6974,-6.7014,-6.7042,-6.7035,-6.7093,-6.6943,-6.7011,-6.7053,-6.6914,-6.7007,-6.6988,-6.6981,-6.7107,-6.7161,-6.7098,-6.7381,-6.728,-6.73,-6.7304,-6.7373,-6.7409,-6.7441,-6.7016,-6.7014,-6.7012,0,0,-6.7242,-6.7231,-6.733,-6.7326,-6.7317,-6.7272,-6.7296,-6.7265,-6.7246,-6.7339,-6.7235,-6.7284,-6.7359,-6.7358,-6.7367,-6.7612,-6.753,-6.7627,-6.778,-6.7855,-6.7885,-6.7911,-6.7997,-6.8029,-6.7644,-6.7645,-6.7645,0,-6.739,-6.7473,-6.7391,-6.7465,-6.748,-6.7356,-6.7455,-6.7456,-6.746,-6.7473,-6.7402,-6.7492,-6.7479,-6.7602,-6.7662,-6.7675,-6.7698,-6.7628,-6.7888,-6.7913,-6.7936,-6.8016,-6.8049,-6.7657,-6.7655,-6.7654,-6.7653,0,-6.7655,-6.7714,-6.7796,-6.7801,-6.7825,-6.7912,-6.7843,-6.7877,-6.7818,-6.7781,-6.7877,-6.7857,-6.7886,-6.7911,-6.7854,-6.8026,-6.7987,-6.7904,-6.7777,-6.7986,-6.8059,-6.809,-6.7673,-6.7669,-6.7666,-6.7663,0,0,-6.8017,-6.7975,-6.8006,-6.8006,-6.7987,-6.8031,-6.8113,-6.814,-6.8171,-6.8178,-6.8243,-6.8309,-6.8231,-6.8242,-6.8184,-6.8251,-6.8443,-6.8158,-6.8157,-6.821,-6.8629,-6.869,-6.8727,-6.839,-6.8395,-6.84,-6.8629,0,-6.8251,-6.8386,-6.8314,-6.8458,-6.8511,-6.8395,-6.8465,-6.8461,-6.8429,-6.8469,-6.8434,-6.8481,-6.8376,-6.8382,-6.8442,-6.8407,-6.8526,-6.839,-6.8448,-6.8451,-6.8451,-6.8766,-6.8831,-6.9048,-6.8658,-6.8662,-6.8666,0,-6.8541,-6.8559,-6.8709,-6.8678,-6.8698,-6.8763,-6.8781,-6.8821,-6.8815,-6.8786,-6.8799,-6.8725,-6.8802,-6.8679,-6.8784,-6.8693,-6.8713,-6.8699,-6.8706,-6.8706,-6.857,-6.8773,-6.9116,-6.9148,-6.8711,-6.8707,-6.8704,0,-6.8787,-6.8849,-6.8946,-6.895,-6.8918,-6.8965,-6.8954,-6.8941,-6.8961,-6.8978,-6.899,-6.9017,-6.9031,-6.9053,-6.8988,-6.8905,-6.9102,-6.8973,-6.9079,-6.9081,-6.9124,-6.9121,-6.9472,-6.9142,-6.9141,-6.9141,-6.914,0,-6.9054,-6.915,-6.9055,-6.9115,-6.9219,-6.9135,-6.924,-6.9217,-6.9206,-6.9258,-6.9161,-6.9212,-6.9124,-6.9168,-6.9118,-6.9211,-6.9219,-6.9198,-6.9183,-6.9205,-6.9207,-6.9215,-6.9197,-6.9149,-6.9147,-6.9146,-6.9144,0,-6.9345,-6.9286,-6.9383,-6.9345,-6.9337,-6.9415,-6.9381,-6.9435,-6.9396,-6.9464,-6.9475,-6.9415,-6.946,-6.9398,-6.9438,-6.9405,-6.9532,-6.9496,-6.9534,-6.9522,-6.9631,-6.9621,-6.9997,-7.0041,-6.9685,-6.9688,-6.9691,0,-6.9518,-6.9588,-6.9557,-6.9584,-6.9578,-6.9625,-6.9645,-6.9567,-6.9592,-6.9589,-6.9643,-6.968,-6.9705,-6.9783,-6.9743,-6.9773,-6.9735,-6.9865,-6.9739,-6.9758,-6.9734,-6.9729,-6.9735,-6.989,-6.9894,-6.9898,-6.9901,0,-6.983,-6.9797,-6.9829,-6.9852,-6.9879,-6.9893,-6.99,-6.9929,-6.9846,-6.9879,-6.9924,-6.9944,-6.9984,-7.0021,-7.0041,-7.0029,-6.9952,-6.9941,-6.9967,-6.9989,-7.0007,-6.9996,-6.9601,-6.9932,-6.9929,-6.9927,-6.9925,-6.9924,-7.0065,-7.0121,-7.0107,-7.0147,-7.0143,-7.0152,-7.02,-7.0167,-7.0202,-7.0227,-7.018,-7.0237,-7.0227,-7.0245,-7.0242,-7.0285,-7.0229,-7.0267,-7.0276,-7.0286,-7.0301,-7.0003,-7.0289,-7.0288,-7.0287,-7.0286,-7.0286,0,-7.037,-7.0355,-7.0392,-7.0404,-7.0435,-7.0359,-7.0363,-7.0393,-7.0444,-7.0442,-7.0468,-7.052,-7.0556,-7.0519,-7.0548,-7.059,-7.0555,-7.06,-7.0595,-7.0593,-7.0351,-7.0325,-7.0628,-7.0628,-7.0627,-7.0627,-7.0627,-7.0627,-7.0532,-7.0622,-7.0588,-7.0676,-7.066,-7.0714,-7.0723,-7.073,-7.0727,-7.0789,-7.0818,-7.0793,-7.0777,-7.0804,-7.0834,-7.0822,-7.0836,-7.0894,-7.0869,-7.0644,-7.061,-7.0578,-7.0553,-7.0898,-7.0898,-7.1106,-7.1108,-7.111]},{"header":{"parameterUnit":"m.s-1","parameterCategory":1,"la1":30.2991,"la2":30.254,"lo1":-89.0895,"lo2":-89.0444,"dy":0.0017,"dx":0.0017,"nx":28,"ny":28,"refTime":"2024-09-04T09:00:00:Z","depth":0,"parameterNumber":3,"parameterNumberName":"V-component_of_WINDS"},"data":[0,0,0,0,0,0,0,0,0,0,0,0,0,0,0,0,0,0,0,0,0,0,0,0,0,0,0,0,0,0,0,0,0,0,0,0,0,0,0,0,0,0,0,0,0,0,0,0,0,0,0,0,0,0,0,0,0,0,-1.9643,-1.9644,0,-1.9675,-1.9675,-1.9675,-1.9652,-1.9651,-1.965,-1.9649,-1.9683,-1.9684,-1.9686,0,0,0,0,0,0,0,0,0,0,0,0,0,-1.9563,-1.9565,-1.9643,-1.9644,-1.9644,-1.9675,-1.9675,-1.9676,-1.9653,-1.9651,-1.965,-1.9649,-1.9682,-1.9684,-1.9686,0,0,0,0,0,0,0,0,0,0,0,0,0,-1.9597,-1.9565,-1.9643,-1.9636,-1.9636,-1.9675,-1.9675,-1.9676,-1.9653,-1.9651,-1.965,-1.9648,-1.9681,-1.9684,-1.9687,-1.9734,0,0,-1.9695,-1.9696,0,0,0,0,0,0,0,0,-1.9595,-1.96,-1.9637,-1.9637,-1.9637,-1.9658,-1.9659,-1.9695,-1.9653,-1.9646,-1.9649,-1.9648,-1.9676,-1.9679,-1.9688,-1.9736,-1.9737,-1.9695,-1.9697,-1.9698,-1.9699,0,0,0,0,0,0,0,-1.9593,-1.9598,-1.9656,-1.9638,-1.9637,-1.9631,-1.9635,-1.9666,-1.9669,-1.9647,-1.9645,-1.9649,-1.9675,-1.9686,-1.9689,-1.9738,-1.9695,-1.9698,-1.9699,-1.9701,-1.9823,-1.9825,0,0,0,0,0,0,-1.9591,-1.9596,-1.9655,-1.9657,-1.9612,-1.9634,-1.9638,-1.9653,-1.9669,-1.967,-1.9651,-1.9648,-1.9682,-1.9686,-1.969,-1.9745,-1.9698,-1.9701,-1.9702,-1.9822,-1.9823,-1.9825,0,0,0,0,0,0,-1.9589,-1.9596,-1.9654,-1.9626,-1.9633,-1.9637,-1.9654,-1.9654,-1.9664,-1.9672,-1.9672,-1.966,-1.9681,-1.9686,-1.9723,-1.9746,-1.9702,-1.9705,-1.982,-1.9822,-1.9824,-1.9856,0,0,0,0,0,0,-1.9587,-1.9596,-1.9614,-1.9627,-1.9635,-1.9686,-1.9656,-1.9656,-1.9669,-1.9666,-1.9681,-1.9682,-1.968,-1.9719,-1.9725,-1.9749,-1.9707,-1.9818,-1.9821,-1.9824,-1.9853,-1.9859,-1.9864,0,0,0,0,0,-1.9584,-1.9623,-1.9615,-1.9623,-1.9658,-1.9688,-1.9692,-1.9688,-1.9671,-1.9689,-1.9693,-1.9681,-1.9742,-1.9723,-1.973,-1.9754,-1.9816,-1.982,-1.9823,-1.985,-1.9858,-1.9864,0,0,0,0,0,0,-1.9614,-1.9624,-1.9616,-1.966,-1.9673,-1.9684,-1.9707,-1.9697,-1.9716,-1.9712,-1.9707,-1.9711,-1.9749,-1.9755,-1.9734,-1.98,-1.9776,-1.9782,-1.9794,-1.9801,-1.9807,-1.9804,-1.9709,0,0,0,0,0,-1.9626,-1.9649,-1.9657,-1.9694,-1.9701,-1.9703,-1.9716,-1.9711,-1.9725,-1.9731,-1.9738,-1.9751,-1.9773,-1.9788,-1.9808,-1.9854,-1.9855,-1.9874,-1.9879,-1.9884,-1.9889,-1.9911,-1.9918,-1.9837,-1.9837,-1.9837,0,0,-1.965,-1.9658,-1.9674,-1.9701,-1.971,-1.9734,-1.9708,-1.9735,-1.9752,-1.9735,-1.9769,-1.9775,-1.979,-1.983,-1.9848,-1.9837,-1.9911,-1.9889,-1.9893,-1.9894,-1.9915,-1.9923,-1.993,-1.9839,-1.9839,-1.9839,0,0,-1.9706,-1.9715,-1.9747,-1.9756,-1.977,-1.9771,-1.9778,-1.979,-1.9792,-1.9827,-1.9814,-1.9834,-1.9873,-1.9883,-1.9893,-1.995,-1.9939,-1.9957,-1.9987,-2.0009,-2.0015,-2.0021,-2.004,-2.0047,-1.9962,-1.9962,-1.9962,0,-1.9734,-1.9769,-1.9764,-1.9791,-1.9802,-1.9787,-1.9818,-1.9828,-1.9848,-1.9856,-1.9843,-1.9889,-1.9898,-1.9939,-1.9953,-1.9963,-1.997,-1.9955,-2.0015,-2.002,-2.0026,-2.0043,-2.0051,-1.9964,-1.9964,-1.9963,-1.9963,0,-1.9803,-1.9827,-1.9851,-1.9869,-1.9884,-1.9913,-1.9911,-1.9926,-1.992,-1.9922,-1.9956,-1.9966,-1.9987,-1.9997,-1.9992,-2.0037,-2.0029,-2.0015,-1.9992,-2.0035,-2.0052,-2.0059,-1.9967,-1.9966,-1.9965,-1.9965,0,0,-1.9879,-1.9893,-1.9902,-1.9909,-1.9922,-1.9941,-1.9969,-1.9988,-2.0,-2.0015,-2.0037,-2.0069,-2.0055,-2.0067,-2.0063,-2.0082,-2.0124,-2.0066,-2.0066,-2.0075,-2.0172,-2.0181,-2.019,-2.0117,-2.0119,-2.012,-2.017,0,-1.9935,-1.9982,-1.9977,-2.0022,-2.0043,-2.0028,-2.0051,-2.0062,-2.0064,-2.0082,-2.0084,-2.0106,-2.0088,-2.0094,-2.0112,-2.0115,-2.0144,-2.0112,-2.0137,-2.0138,-2.0133,-2.0198,-2.0209,-2.0256,-2.0177,-2.0178,-2.0179,0,-2.0006,-2.0021,-2.0068,-2.0075,-2.0084,-2.0106,-2.0122,-2.014,-2.0151,-2.0151,-2.0163,-2.0155,-2.0181,-2.0157,-2.0193,-2.0172,-2.0182,-2.0185,-2.0186,-2.0188,-2.0161,-2.02,-2.0272,-2.0278,-2.019,-2.0189,-2.0188,0,-2.0055,-2.0087,-2.0118,-2.0125,-2.0136,-2.0151,-2.0156,-2.0165,-2.0177,-2.0191,-2.0198,-2.0216,-2.0226,-2.024,-2.0236,-2.0219,-2.0273,-2.0249,-2.0272,-2.0273,-2.0284,-2.0283,-2.0356,-2.0293,-2.0292,-2.0292,-2.0292,0,-2.0116,-2.0145,-2.014,-2.0159,-2.019,-2.0184,-2.0215,-2.0218,-2.0226,-2.0245,-2.0234,-2.0252,-2.0247,-2.0265,-2.0263,-2.0292,-2.0297,-2.0296,-2.0295,-2.0297,-2.0297,-2.0303,-2.0299,-2.0294,-2.0294,-2.0293,-2.0293,0,-2.0176,-2.0174,-2.0207,-2.0213,-2.0215,-2.0238,-2.0243,-2.0261,-2.0261,-2.0285,-2.0291,-2.0291,-2.0311,-2.0309,-2.0333,-2.0331,-2.0366,-2.0362,-2.0362,-2.0361,-2.0384,-2.0381,-2.0463,-2.0472,-2.0404,-2.0404,-2.0405,0,-2.0215,-2.0236,-2.0244,-2.0256,-2.0261,-2.0281,-2.0291,-2.0286,-2.0298,-2.031,-2.0326,-2.0345,-2.036,-2.0392,-2.0395,-2.0412,-2.0407,-2.0434,-2.0409,-2.0409,-2.0405,-2.0403,-2.0405,-2.0439,-2.044,-2.044,-2.0441,0,-2.0283,-2.0281,-2.0297,-2.0312,-2.0325,-2.0337,-2.0348,-2.0358,-2.0353,-2.0367,-2.0386,-2.0398,-2.042,-2.0438,-2.0454,-2.0459,-2.0449,-2.0448,-2.0455,-2.0456,-2.0454,-2.0454,-2.0374,-2.0447,-2.0446,-2.0446,-2.0445,-2.0445,-2.0333,-2.035,-2.0358,-2.0375,-2.0383,-2.0392,-2.0408,-2.041,-2.0426,-2.0443,-2.0439,-2.046,-2.0469,-2.0489,-2.0495,-2.0512,-2.0502,-2.0512,-2.0514,-2.0516,-2.0517,-2.0452,-2.0515,-2.0515,-2.0515,-2.0515,-2.0515,0,-2.0399,-2.0403,-2.0419,-2.0433,-2.0447,-2.0435,-2.0446,-2.0458,-2.0477,-2.0486,-2.05,-2.0522,-2.0539,-2.0542,-2.0558,-2.0571,-2.0566,-2.0575,-2.0573,-2.0574,-2.0526,-2.0519,-2.0578,-2.0578,-2.0578,-2.0578,-2.0578,-2.0578,-2.0435,-2.0463,-2.0461,-2.0492,-2.0495,-2.0516,-2.0523,-2.0531,-2.0538,-2.0562,-2.0576,-2.0577,-2.0583,-2.0599,-2.0614,-2.0615,-2.062,-2.0631,-2.0629,-2.0584,-2.0578,-2.0572,-2.0564,-2.0632,-2.0633,-2.0675,-2.0676,-2.0676]}]]